User: anonymous   Login
Location: Antichan
(42.9728°N, 0.6667°E)
Time: 07:49:21
(UTC+00:00)
Language:

Cosmos 1570 Rocket - Orbit

View from above orbital plane
View from above orbital plane
View from above satellite
View from above satellite

Ground track
Ground track

The orbit data is extracted from the following two-line orbital elements,

1 15032U 84056B   20299.90718346 +.00000062 +00000-0 +30869-4 0  9992
2 15032 074.0720 353.4711 0017857 209.9077 150.1056 14.34809468902588
Epoch (UTC): 25 October 2020 21:46:20
Eccentricity: 0.0017857
inclination: 74.0720°
perigee height: 763 km
apogee height: 788 km
right ascension of ascending node: 353.4711°
argument of perigee: 209.9077°
revolutions per day: 14.34809468
mean anomaly at epoch: 150.1056°
orbit number at epoch: 90258

The dashed part of the orbit path shows where the satellite is in the earth's shadow,  

DLR